Theta_e
299 299 298 296 295 294 294 293 294 295 296 296 296 296 296 296 295 294 295 295 295 295 295 294 292 291 291 291 291 291 291 291 291 291 291 291 291 291 291 291 290 289 288 288 287 288 286 284 284 284 284 284 284 284 284 282 282 282 283 282 280 279 280 279 280 279 280 280 279 280 281 281 286 282 280 281 281 281 281 282 282 282 281 282 282
297 297 297 294 293 292 292 292 293 293 294 295 296 297 297 296 295 295 295 295 295 295 295 295 294 294 293 292 292 292 291 291 291 291 291 291 290 290 290 290 290 289 289 288 287 287 285 284 284 284 284 284 284 283 282 283 283 282 282 280 280 278 279 279 280 279 279 278 279 280 279 279 283 281 281 280 281 282 281 281 282 282 281 282 282
296 296 296 293 292 291 291 292 293 294 295 295 296 296 296 295 295 295 294 294 295 295 295 295 295 294 294 293 293 291 292 292 291 291 291 290 289 289 290 290 289 289 288 288 287 287 286 285 284 284 284 284 283 282 282 281 282 282 282 281 279 280 280 280 279 278 278 279 279 279 278 278 282 279 278 280 280 280 280 281 282 281 281 281 282
296 296 296 293 291 291 290 290 292 292 293 293 294 295 296 295 295 294 294 295 295 295 295 295 294 293 291 289 290 290 289 290 289 289 289 289 288 289 289 289 289 289 288 288 288 287 286 285 284 284 283 284 284 283 282 281 281 282 281 281 281 279 278 279 281 279 278 280 280 278 276 278 276 278 277 279 279 279 280 280 281 280 280 281 281
296 296 296 295 292 291 290 291 290 291 293 293 294 295 296 295 295 294 294 294 294 295 295 294 293 290 289 288 288 287 287 288 287 286 288 289 289 288 289 289 289 289 288 288 288 287 286 285 284 284 283 283 283 283 282 282 282 282 282 280 280 280 279 278 280 279 278 281 280 276 276 279 277 277 276 277 277 280 279 278 284 280 280 281 279
295 295 295 295 293 291 289 288 289 291 292 294 294 295 295 295 294 294 294 294 294 294 294 293 293 291 289 289 287 288 287 286 288 288 287 288 289 289 288 289 288 288 288 287 287 287 286 285 284 284 283 283 283 283 282 281 281 282 282 281 280 279 280 278 277 281 280 280 278 277 278 278 276 275 277 279 277 278 277 279 279 277 279 279 279
291 292 293 292 292 291 290 289 290 291 292 293 293 293 294 294 294 294 294 293 294 293 293 293 292 291 291 291 291 290 289 289 290 290 289 290 290 289 288 288 288 288 287 287 287 287 286 285 284 284 284 283 284 282 282 282 282 282 282 280 280 281 279 278 278 278 278 278 278 278 280 278 277 277 276 276 277 277 276 277 278 277 277 278 279
292 292 291 291 290 290 293 292 290 292 292 291 292 292 293 293 292 293 293 293 293 293 293 293 292 291 291 291 291 290 291 290 290 290 290 289 288 288 287 287 288 288 287 287 287 286 286 285 284 284 283 283 283 282 282 282 281 281 282 280 279 281 279 280 278 278 279 278 279 278 279 278 277 276 277 276 275 276 276 276 276 276 277 277 278
290 291 291 291 290 290 290 291 291 290 290 291 291 292 292 292 292 292 292 292 292 292 293 293 293 292 291 291 291 291 291 290 289 289 288 288 288 287 287 287 287 287 287 286 286 286 286 285 284 284 283 283 284 283 282 281 281 281 281 280 279 280 279 278 279 279 278 278 277 276 277 276 276 277 277 276 275 275 275 275 275 276 276 277 277
290 290 289 290 289 289 289 288 288 289 289 289 290 290 290 289 290 291 291 292 292 292 292 292 292 292 291 291 291 291 290 287 287 287 287 287 287 287 287 287 287 286 286 286 286 286 286 285 284 284 283 283 284 283 282 281 281 281 281 281 280 279 278 279 279 279 279 279 279 278 276 276 276 276 276 276 275 275 276 275 275 275 275 276 277
289 288 288 289 288 287 286 287 287 286 286 288 288 288 288 288 288 289 290 291 291 291 292 291 292 292 291 291 291 290 289 287 286 285 285 285 287 286 286 287 286 286 286 285 286 285 285 285 284 284 284 284 284 282 282 281 281 281 281 280 280 280 279 278 281 278 279 279 278 279 279 279 278 276 276 276 275 275 274 275 275 276 275 275 276
286 288 291 290 291 289 286 287 286 286 286 287 287 287 287 288 288 288 288 289 290 290 291 291 291 291 291 291 291 291 290 288 287 286 286 286 287 286 286 286 285 286 286 285 285 285 285 284 284 284 283 283 283 283 282 282 281 281 280 280 280 280 279 279 279 278 278 278 278 278 278 279 278 277 278 278 277 276 276 274 274 275 275 275 277
287 288 287 289 289 290 289 287 285 285 286 286 286 286 286 287 287 288 288 288 289 290 290 290 290 291 291 291 290 291 290 289 288 288 287 287 287 286 286 285 285 285 285 285 285 284 284 284 283 283 283 283 283 282 282 281 281 280 280 280 280 279 279 279 279 279 279 279 279 278 277 278 277 277 278 278 277 277 276 274 275 275 274 274 275
288 286 286 287 288 289 289 287 286 285 285 286 285 286 286 287 287 287 288 288 288 289 289 290 290 291 291 291 291 290 290 289 289 289 287 287 287 287 286 286 286 286 286 286 286 285 285 285 284 283 283 283 283 282 282 281 281 280 280 280 280 280 279 279 279 279 278 278 278 278 277 277 277 277 278 278 277 277 275 275 274 274 274 274 275
286 285 286 287 289 288 288 289 288 285 285 285 284 285 285 286 287 287 287 287 288 288 289 289 290 290 290 290 290 290 290 290 289 289 288 287 287 287 287 287 287 286 287 286 286 285 285 284 284 283 283 282 282 282 282 281 281 280 280 280 280 279 279 279 278 278 278 278 277 278 277 277 277 277 278 278 278 278 277 276 275 274 273 273 273
284 285 285 284 285 286 287 287 287 285 284 283 284 285 286 287 287 287 288 288 288 288 288 289 289 290 290 290 290 290 290 289 289 288 288 288 287 287 287 287 287 287 287 286 286 285 284 284 284 283 283 282 282 282 281 281 280 280 279 279 279 280 279 278 278 278 278 278 278 277 277 277 277 277 277 277 277 277 276 277 276 275 275 273 273
285 287 287 285 284 285 285 286 286 284 283 284 285 286 287 287 287 287 287 287 288 288 288 288 288 288 289 289 289 289 289 289 289 288 288 287 287 287 287 287 286 286 286 286 285 285 285 284 283 283 283 282 282 282 281 280 280 280 280 279 279 279 279 278 278 278 278 278 277 277 277 277 277 277 277 277 277 277 277 276 277 276 275 274 271
283 283 285 288 291 289 287 286 285 286 286 286 286 285 286 287 287 287 287 287 288 287 287 288 288 288 288 288 289 289 289 289 289 288 288 287 286 286 286 286 286 286 286 286 285 284 284 284 284 283 282 282 281 281 281 280 280 280 280 279 279 278 278 278 278 278 277 277 277 277 277 277 277 277 277 277 277 277 276 276 276 276 276 276 274
288 289 291 292 291 290 288 288 288 286 285 285 286 285 284 284 285 285 286 287 287 287 287 287 287 288 288 288 288 288 288 288 288 287 286 286 286 286 286 286 285 285 285 285 285 284 284 284 284 283 282 281 281 281 281 280 280 279 279 279 278 278 278 277 277 277 277 277 277 276 276 276 276 276 276 276 276 276 276 276 276 276 276 275 275
291 291 291 290 289 288 287 287 287 287 287 286 284 283 282 283 283 284 284 284 284 285 285 286 287 287 287 286 287 288 288 288 288 287 286 286 286 285 285 285 285 285 285 285 285 284 284 284 284 283 282 281 281 281 280 280 280 279 279 279 278 278 278 277 277 277 277 277 276 276 276 276 276 276 276 276 276 276 276 276 276 275 275 275 275
290 289 288 288 287 287 287 287 287 287 287 287 287 286 284 283 282 283 284 284 283 284 285 285 285 285 285 286 286 286 286 287 286 287 286 286 285 285 285 286 284 284 285 284 284 284 284 284 283 283 282 282 281 281 280 280 280 279 279 279 278 278 277 277 277 276 276 276 276 276 276 276 276 275 275 275 275 275 275 275 275 275 275 275 274
287 286 286 286 286 286 286 286 287 287 287 287 287 287 286 285 284 283 283 282 283 284 284 284 284 284 284 286 286 285 285 285 286 286 286 286 285 285 286 285 285 285 284 285 284 284 284 284 283 283 283 282 281 281 280 280 280 279 279 279 278 278 277 277 276 276 276 276 276 276 275 275 275 275 275 275 275 275 275 274 274 274 274 274 275
285 284 285 285 285 285 285 285 285 286 286 287 287 287 287 287 286 285 284 284 284 284 283 284 284 284 285 285 285 285 285 285 285 286 285 286 286 285 286 286 285 284 284 284 284 284 284 283 283 283 282 282 281 281 281 280 280 279 279 278 278 278 277 277 276 276 276 276 275 275 275 275 275 274 274 274 274 274 274 274 274 274 273 273 274
284 284 284 284 285 285 285 285 285 285 285 286 287 287 288 288 288 287 286 286 285 285 284 284 284 284 284 284 285 285 285 285 285 286 286 286 286 286 286 286 285 285 284 284 284 284 284 283 283 282 282 282 281 281 281 280 280 279 279 278 278 277 277 277 276 276 276 275 275 275 275 274 274 274 274 274 274 274 274 273 273 273 273 272 272
283 283 283 283 284 284 284 284 284 285 285 286 286 287 287 288 288 289 288 288 287 286 285 285 284 284 285 285 285 285 285 286 286 286 286 287 287 287 286 285 285 284 284 283 284 284 283 283 283 282 282 282 281 281 280 280 280 280 279 278 278 277 277 277 276 276 277 275 275 275 275 274 274 273 273 273 273 273 273 272 272 272 272 272 271
283 283 283 282 283 283 284 283 284 284 285 285 286 286 287 287 288 288 288 289 289 288 286 286 286 286 286 285 286 286 286 286 286 287 287 287 287 287 286 286 285 284 284 284 284 283 283 283 283 283 282 282 281 281 280 280 279 279 279 278 277 277 277 277 276 276 276 276 275 275 274 274 274 273 273 273 273 272 272 272 271 271 271 271 270
282 282 282 282 283 282 283 283 283 283 284 284 284 285 286 287 287 287 288 288 288 288 287 287 286 285 285 285 285 286 286 286 286 287 287 287 287 287 286 286 285 285 284 283 283 283 283 283 283 283 282 282 281 281 280 280 279 279 278 278 277 277 276 276 276 276 276 276 275 275 274 274 274 274 273 272 272 272 271 271 271 271 271 270 270
282 282 282 281 281 282 282 282 283 283 284 284 284 284 285 285 286 286 287 287 287 287 286 286 286 286 286 286 286 286 286 286 287 287 287 286 286 286 286 286 285 284 284 284 283 283 283 283 283 282 282 282 281 280 280 279 279 278 278 277 277 277 276 276 276 275 275 275 275 275 274 274 274 274 273 273 272 271 271 270 271 271 270 270 270
281 281 281 281 281 281 282 282 282 282 283 283 284 284 284 284 285 285 286 286 286 285 285 285 285 285 285 286 286 286 286 285 286 286 286 286 286 286 286 285 285 284 284 284 284 283 283 282 282 282 282 281 281 280 280 279 278 278 278 278 277 277 276 275 275 275 274 274 274 274 274 274 274 276 276 275 274 274 271 270 270 270 270 270 269
280 281 281 282 282 282 282 282 282 282 282 283 283 284 284 284 284 285 285 286 286 285 284 284 284 285 285 285 285 285 285 285 285 285 285 285 285 285 285 285 285 284 284 284 283 283 282 282 282 282 282 281 281 281 281 283 282 279 278 277 277 276 276 275 275 274 274 274 274 273 274 276 277 277 277 277 277 277 276 272 271 271 270 269 269
280 281 281 281 281 282 282 282 282 283 283 283 283 283 283 283 284 284 284 285 285 284 284 284 284 284 284 285 284 284 285 284 285 285 285 285 285 285 285 284 284 284 283 283 282 282 282 282 282 282 281 281 281 281 283 285 285 284 279 277 276 276 275 275 274 273 273 273 273 272 272 275 276 277 276 278 278 278 277 276 276 275 274 271 269
280 280 281 281 282 282 282 282 283 283 283 283 283 283 283 283 284 284 284 285 284 284 283 283 283 283 284 284 284 283 283 284 284 284 284 284 284 284 284 283 283 283 283 282 282 282 282 282 282 282 281 281 281 283 284 285 285 285 282 278 277 276 275 275 274 273 273 272 272 272 272 273 274 274 274 276 277 279 278 278 278 277 277 277 276
281 281 281 282 282 283 283 283 283 283 283 284 284 284 283 284 284 284 285 284 284 283 283 283 283 283 283 283 283 282 282 282 283 283 283 283 282 283 283 282 282 283 282 281 282 282 282 282 282 281 281 281 280 283 285 285 285 285 284 280 277 276 275 275 274 273 273 272 272 271 271 272 273 276 275 274 275 276 279 279 278 278 278 278 279
282 282 282 282 283 283 283 283 283 283 284 284 284 284 284 284 285 285 284 284 283 283 283 283 283 283 282 282 282 282 281 282 282 282 282 281 281 282 282 282 282 282 282 282 282 282 282 281 281 281 281 281 280 283 285 285 285 286 285 282 277 276 275 275 274 273 273 272 272 271 271 271 272 274 274 274 275 275 276 276 276 276 276 278 280
282 282 282 282 282 282 283 282 282 283 284 284 283 284 284 284 285 285 284 284 284 283 283 283 283 283 282 282 281 281 281 281 281 281 281 281 281 282 282 282 282 282 282 282 282 281 281 281 281 280 280 280 280 283 285 285 286 286 286 283 276 275 274 274 274 273 273 272 272 272 271 271 272 273 274 274 275 275 276 275 276 276 277 277 278
282 282 282 282 282 282 282 282 283 283 283 283 283 283 283 283 284 284 284 284 284 283 283 284 283 283 282 282 281 280 280 280 280 280 280 281 281 281 282 282 281 282 282 282 281 281 281 280 280 280 279 279 279 283 284 285 286 286 286 281 276 274 273 273 273 273 272 272 272 272 272 272 273 274 276 278 277 275 274 274 274 274 274 274 274
283 282 282 282 282 282 282 282 282 282 282 282 283 283 283 283 283 283 283 283 283 282 283 283 283 283 282 282 281 280 279 279 280 280 280 280 281 281 281 281 280 280 281 280 280 280 280 280 280 279 279 278 277 281 284 285 286 286 285 278 274 273 273 272 272 272 272 272 272 273 273 273 274 274 277 280 280 278 272 272 271 270 270 271 271
281 280 280 281 281 281 281 282 281 282 282 282 282 282 282 282 282 282 281 281 281 281 282 283 282 283 282 282 281 280 279 278 278 278 279 280 280 280 280 280 279 279 279 279 279 279 278 278 278 278 278 277 276 279 283 285 285 286 284 276 274 273 272 271 271 272 272 273 273 276 275 274 274 274 279 281 281 278 272 272 271 270 269 270 271
280 280 280 280 280 281 281 281 281 281 281 282 281 281 281 280 281 280 280 280 280 281 282 282 282 283 283 282 282 281 280 279 278 279 278 277 277 278 279 277 277 278 278 278 277 277 276 276 276 277 278 277 276 277 283 284 285 286 283 275 274 272 271 271 271 271 272 273 274 276 277 276 275 276 280 281 282 278 272 272 271 270 270 270 271
281 280 280 280 281 280 280 280 280 280 281 281 281 280 280 280 279 279 279 279 280 280 281 282 282 282 283 283 283 281 281 280 279 279 278 277 276 275 274 275 274 274 274 274 274 274 274 274 274 275 275 276 275 275 279 284 285 286 284 275 273 272 271 271 271 272 272 273 274 275 277 279 279 279 280 282 282 280 273 272 272 271 270 270 273
279 279 281 280 280 279 279 279 279 280 280 279 279 279 278 278 278 278 278 279 280 280 280 280 281 281 282 282 282 282 281 280 280 278 278 277 276 275 275 273 273 272 270 270 271 272 272 272 272 273 273 275 274 274 276 283 285 286 285 278 273 273 273 273 272 272 272 272 273 274 275 279 279 280 280 282 282 282 277 273 273 272 273 273 275
277 279 279 279 278 278 278 279 279 279 278 278 278 277 277 277 277 277 278 279 280 279 279 279 279 280 281 281 282 282 282 280 279 278 277 277 277 275 275 274 273 273 272 272 271 271 270 270 270 272 272 273 275 276 274 281 284 285 286 280 275 274 274 273 273 272 273 273 273 274 274 278 280 280 280 281 282 282 280 275 275 277 278 277 275
275 276 276 276 276 276 277 277 278 277 277 277 277 276 275 276 275 276 278 279 278 278 277 277 278 278 279 280 281 281 281 281 279 278 277 277 277 275 274 274 273 273 272 272 272 272 271 270 269 270 271 272 273 274 277 277 282 285 286 282 279 277 278 275 273 272 273 273 273 274 275 278 280 280 280 281 281 282 281 277 279 279 278 278 275
275 275 275 273 273 274 275 275 275 275 276 276 275 274 274 274 274 276 277 277 276 275 275 275 276 277 277 277 278 279 280 280 280 279 277 276 276 275 274 273 273 273 273 272 272 271 271 270 270 269 270 271 272 272 276 278 279 284 285 284 281 279 280 275 275 274 274 273 273 273 275 279 280 280 281 281 281 281 280 280 280 279 279 277 267
274 274 274 272 272 272 273 272 273 273 273 274 274 273 273 272 274 275 274 273 272 272 273 273 274 274 274 275 276 277 278 279 279 278 277 277 276 275 273 273 273 273 273 272 272 272 271 271 271 270 270 271 271 271 272 276 279 281 285 285 282 281 281 279 275 274 274 274 275 277 277 279 280 280 281 281 281 281 281 280 279 279 276 266 265
272 272 272 271 270 270 270 270 271 271 271 272 272 272 271 272 273 273 272 271 270 270 270 270 270 271 272 272 273 274 275 277 278 278 277 277 277 276 274 274 273 272 273 273 273 272 271 271 271 271 271 271 271 271 272 274 277 279 282 284 284 281 281 280 277 275 276 277 277 278 278 279 280 280 278 278 276 277 279 279 279 273 266 265 263
271 271 270 269 269 269 269 269 269 270 270 269 269 270 271 271 271 270 270 269 268 268 268 267 267 268 269 270 270 271 272 274 275 277 277 276 276 276 275 274 273 272 272 272 273 272 272 271 271 272 271 270 270 271 272 272 274 276 278 281 283 280 281 280 276 275 276 275 276 276 276 278 278 280 278 276 276 277 274 270 266 265 263 262 262
271 270 269 267 267 267 267 268 268 269 269 268 268 268 268 268 268 268 267 266 266 266 265 265 265 266 267 267 268 270 271 272 273 275 276 276 276 275 275 274 274 273 273 272 272 272 272 272 272 272 271 269 269 270 271 271 273 275 277 279 281 279 278 277 274 274 274 275 275 277 277 276 276 273 270 269 267 266 265 265 263 262 261 261 262
269 268 268 267 267 267 267 266 267 267 267 266 266 266 266 266 266 265 264 263 263 264 264 263 264 264 265 267 268 269 269 271 272 273 275 276 276 276 275 275 276 276 275 274 274 274 274 274 273 273 271 269 269 269 270 274 274 277 277 278 280 278 278 276 275 277 274 274 274 273 271 269 267 266 265 264 263 263 262 261 261 260 260 260 260
268 268 267 266 266 265 265 265 265 266 265 264 264 264 264 264 263 263 262 261 261 261 261 261 262 263 264 265 266 267 268 270 270 272 273 274 276 279 278 276 276 278 279 280 279 276 275 275 274 274 273 271 270 271 275 277 277 278 280 281 282 281 280 276 277 279 275 272 271 269 268 268 267 266 265 264 264 263 261 259 258 262 259 258 258
266 265 265 265 265 265 264 263 264 264 263 263 262 262 262 262 262 261 261 260 260 260 260 261 262 262 264 265 265 266 266 267 268 269 270 271 272 275 279 281 280 279 279 280 281 281 280 279 275 273 274 277 276 275 276 277 278 279 280 281 282 282 281 279 280 276 272 270 269 268 268 267 266 266 265 265 263 262 261 259 258 260 259 259 260
Wind_Speed
19 12 11 6 5 6 7 7 9 9 9 10 12 13 14 16 14 16 13 13 12 12 12 13 13 10 8 12 14 12 12 11 11 11 11 11 11 11 11 10 10 10 9 10 10 9 8 7 8 7 7 7 8 9 7 7 5 5 6 3 4 3 1 1 0 2 4 3 3 5 5 3 2 2 4 4 4 2 1 3 3 5 4 5 3
9 10 12 4 6 6 6 7 6 8 11 10 13 16 15 13 14 14 10 12 13 14 14 14 14 16 18 18 16 13 13 13 13 12 12 10 10 10 10 9 10 10 10 10 9 10 9 9 9 9 9 8 7 4 5 5 5 5 6 4 1 3 2 2 1 2 3 3 4 1 4 3 2 1 2 3 3 3 3 3 3 5 4 3 4
9 11 10 6 6 6 6 7 8 12 10 13 15 12 12 13 14 11 12 13 14 14 13 15 13 11 11 7 10 8 8 8 7 8 8 9 9 9 8 9 10 9 10 11 10 10 10 10 10 9 9 8 8 8 7 7 7 8 8 8 5 1 1 1 1 2 4 1 2 5 0 1 1 1 1 2 4 2 2 3 2 4 3 4 4
14 12 12 7 5 5 4 5 7 6 7 8 9 12 11 12 12 13 13 14 13 15 15 11 9 6 4 3 4 4 5 4 4 5 7 6 8 9 10 11 11 11 11 11 10 10 11 11 9 9 9 9 10 10 9 9 8 8 8 5 6 5 2 2 1 1 4 8 2 1 1 2 1 4 2 3 1 1 2 2 2 3 3 4 5
15 15 12 10 6 6 6 6 4 7 9 10 10 12 10 14 14 14 12 13 12 12 13 10 9 7 6 5 5 5 4 6 5 5 8 8 8 10 12 10 11 11 11 12 11 12 11 10 10 10 10 9 9 9 10 11 11 9 10 8 9 8 7 2 1 1 1 2 6 5 2 0 4 1 1 2 1 1 1 2 1 2 2 3 5
11 13 14 10 6 6 4 4 5 8 10 10 9 11 9 10 10 10 9 9 11 12 12 11 12 12 11 10 10 10 9 9 14 17 12 13 16 10 10 12 12 12 11 12 12 11 11 11 11 11 10 10 9 9 8 6 8 10 11 10 9 4 7 6 3 0 1 2 1 1 3 3 4 2 2 3 1 1 2 2 1 2 0 3 3
5 8 7 7 6 6 6 6 8 9 12 7 6 8 9 8 10 12 12 10 10 11 14 12 12 12 16 16 15 16 17 14 11 9 12 11 7 10 10 9 11 12 12 12 12 11 11 11 11 11 11 10 9 8 8 11 10 10 7 7 8 6 6 6 9 6 2 2 2 2 3 2 4 7 5 2 2 1 1 0 1 2 2 1 1
7 7 4 3 5 6 9 7 6 11 8 4 6 5 9 10 10 11 10 10 10 11 14 15 15 14 14 14 13 13 15 13 12 11 10 8 9 9 8 9 10 10 11 11 11 12 11 11 11 11 11 10 10 10 11 9 7 5 6 6 5 6 8 8 8 9 9 4 1 3 4 4 3 4 3 6 4 2 2 1 1 3 3 1 1
4 6 6 6 7 7 6 7 6 7 5 6 6 5 5 6 8 9 11 11 11 14 15 16 14 15 15 14 14 13 12 8 7 6 8 9 11 9 9 9 9 10 10 11 11 12 11 12 12 12 11 11 11 10 8 9 11 10 9 9 9 7 7 4 8 9 6 8 7 2 4 4 4 4 2 3 4 4 4 2 4 3 2 3 2
3 2 4 6 5 6 5 5 6 6 4 3 3 3 4 4 6 9 11 11 11 13 14 15 15 13 14 15 17 13 9 6 7 8 8 9 11 11 11 10 11 10 10 11 11 12 13 12 12 14 13 12 11 11 10 10 10 10 11 10 8 8 6 6 9 8 7 7 8 9 6 4 4 2 1 2 2 1 4 4 3 2 3 2 1
4 1 2 5 5 5 4 4 5 4 3 1 2 3 4 5 5 7 8 7 9 13 14 16 15 14 15 16 17 15 12 9 9 9 8 8 11 11 11 11 9 11 10 10 13 13 12 12 13 12 11 11 11 11 12 12 11 10 9 8 8 10 8 8 4 5 7 7 7 9 11 12 11 8 9 6 5 4 2 3 3 3 3 4 3
3 6 10 9 9 6 4 5 4 4 2 1 1 3 4 5 5 7 6 7 7 10 12 13 13 14 13 14 15 14 13 12 14 14 14 15 13 13 10 8 10 9 10 10 11 12 11 11 10 11 11 11 13 12 11 11 9 8 8 9 9 8 6 7 7 8 8 7 8 7 7 7 5 6 8 10 10 7 7 5 6 1 3 5 5
3 2 5 6 6 8 7 5 4 5 4 3 3 4 4 4 6 8 9 7 9 10 13 14 14 15 16 15 13 12 12 13 14 13 12 13 13 12 12 13 11 10 12 13 13 13 11 11 12 12 11 12 11 10 10 10 10 10 10 10 9 11 11 10 9 11 12 11 11 7 5 6 6 2 7 8 4 5 6 6 2 3 4 2 2
5 2 4 4 5 7 6 4 4 4 4 4 3 3 4 4 5 7 8 6 6 8 11 13 16 15 13 13 12 12 13 13 12 12 12 11 11 13 14 13 14 16 15 16 14 14 13 14 12 12 11 9 10 11 10 10 10 10 10 11 12 10 7 9 9 7 8 6 4 8 7 7 5 5 6 7 8 8 5 7 6 3 2 4 2
4 5 4 5 7 6 7 9 8 4 3 3 4 4 4 5 6 8 8 9 10 11 10 14 14 12 11 11 11 11 13 11 12 11 11 12 11 12 12 12 13 13 13 12 10 14 14 12 13 13 12 11 10 10 9 9 10 9 9 10 8 7 8 8 7 8 9 8 7 8 7 6 6 6 6 7 7 8 8 8 9 6 3 3 2
4 4 4 5 6 6 6 6 5 4 3 4 5 4 5 7 7 9 11 10 11 11 12 12 11 9 10 12 13 11 10 10 9 9 11 12 13 13 13 13 12 11 10 10 12 13 14 14 12 13 12 12 12 11 10 10 10 10 9 8 10 6 9 9 8 7 8 8 8 6 6 7 6 6 6 6 6 5 5 6 6 5 5 4 1
6 6 7 5 5 5 4 5 5 4 3 4 5 5 6 6 7 9 10 8 10 11 10 7 7 8 10 10 9 10 11 12 13 12 11 9 9 10 10 11 9 9 10 10 11 12 12 13 13 13 13 13 12 12 12 11 10 10 10 10 11 8 8 10 7 8 7 7 6 8 8 7 6 5 5 5 5 5 5 5 6 7 7 5 1
6 6 6 6 2 1 1 1 2 5 6 6 6 4 4 5 6 8 7 10 8 7 8 8 8 9 9 10 10 10 10 10 8 8 8 8 9 10 10 10 13 11 10 9 11 12 13 14 13 13 12 12 13 12 12 12 11 10 11 10 9 8 9 7 7 7 7 7 6 6 6 7 6 7 7 6 6 6 6 6 6 4 5 8 6
6 7 9 9 10 12 11 11 12 10 7 6 7 8 5 5 6 5 7 6 5 5 6 7 8 8 8 9 10 11 10 10 9 6 6 9 10 11 12 12 8 10 11 12 12 13 13 13 13 13 12 13 12 12 12 12 12 11 10 10 8 9 9 9 8 8 7 8 9 9 7 7 7 7 7 6 6 6 7 6 6 5 4 4 8
7 8 9 12 15 16 16 17 15 13 10 6 3 2 3 4 4 5 5 5 5 6 5 8 9 8 8 6 8 9 9 9 7 7 8 10 11 9 9 8 12 9 11 12 13 14 15 15 14 14 14 13 13 12 13 12 12 11 11 10 9 10 10 10 8 7 7 8 9 10 9 8 8 7 7 7 7 6 6 7 7 6 5 4 6
16 16 18 20 19 18 17 14 12 10 10 11 12 11 8 5 4 4 6 6 5 5 6 7 5 6 5 9 8 7 9 7 7 8 9 9 8 9 9 9 4 11 11 13 14 15 15 15 14 14 15 14 14 14 12 12 12 12 11 11 10 11 12 9 8 9 7 8 9 9 9 7 8 9 8 7 7 7 7 6 6 6 7 6 8
16 16 16 16 15 16 15 15 15 15 15 15 14 13 13 11 7 5 4 5 5 6 5 6 5 5 7 8 9 6 7 7 9 10 11 10 9 10 9 7 12 10 9 13 13 13 13 14 14 15 14 14 14 15 14 13 14 14 13 10 11 13 12 11 10 11 10 9 9 9 9 8 8 9 8 9 8 8 8 8 8 9 8 9 8
13 13 12 11 11 11 10 13 15 16 16 16 14 13 12 11 8 6 4 7 6 7 5 6 6 7 8 8 7 8 7 8 10 10 11 12 10 10 8 12 12 10 10 10 11 12 13 14 14 14 14 14 15 15 14 14 15 16 16 14 13 14 14 13 13 13 12 10 10 10 10 9 7 9 9 8 8 9 8 9 9 8 8 8 8
11 11 11 11 11 11 14 16 15 15 15 15 14 13 13 12 11 8 7 8 6 6 6 6 6 8 8 7 9 8 8 10 11 12 13 13 12 11 11 13 12 9 11 10 9 11 11 14 15 14 15 15 16 15 15 16 16 16 16 16 14 14 13 13 13 13 12 12 13 11 11 11 10 11 10 9 8 8 9 8 8 7 7 7 7
14 13 12 12 14 15 13 12 12 13 13 14 15 14 14 14 14 14 13 10 7 6 6 6 7 9 9 9 10 9 10 11 13 12 15 14 14 14 12 13 11 11 11 10 11 11 12 13 14 16 17 17 16 16 16 15 15 15 15 14 15 14 14 14 14 13 12 13 13 13 12 12 11 11 9 10 9 11 9 8 8 7 7 6 6
12 13 15 15 11 10 12 13 12 12 12 12 13 13 13 13 13 13 14 15 14 11 7 7 7 9 9 10 10 9 11 13 14 14 15 14 14 13 12 11 12 13 11 12 14 13 13 14 14 15 16 16 15 15 17 17 17 15 15 14 14 14 14 14 13 13 13 13 13 12 12 12 13 14 13 11 10 12 9 9 9 8 7 6 7
8 8 8 9 13 14 12 12 11 11 11 10 11 12 13 13 14 14 13 12 13 14 15 15 11 7 9 9 9 11 12 12 13 14 13 12 12 12 12 13 11 13 14 14 13 14 14 15 16 14 15 15 16 16 16 15 15 15 15 15 14 14 14 13 13 14 14 13 13 13 13 14 15 14 13 13 13 11 10 10 9 9 8 8 7
8 9 11 10 9 10 11 11 11 11 11 11 9 10 10 11 12 12 13 12 12 12 12 13 14 15 13 11 9 9 10 12 12 12 12 12 11 11 12 12 10 13 14 14 15 16 14 13 15 14 14 12 14 14 14 14 14 15 15 16 16 15 15 14 13 13 13 14 14 13 13 14 14 13 13 12 12 12 10 10 9 8 9 9 8
12 12 10 9 9 8 10 11 11 11 12 12 12 13 12 11 11 11 11 12 11 11 11 11 11 11 12 13 13 10 9 10 11 11 11 11 11 12 11 11 11 13 12 13 12 12 12 13 12 13 14 13 14 15 14 15 16 16 16 16 17 17 16 15 13 13 12 13 12 12 12 13 13 13 15 13 13 12 11 11 9 10 10 9 7
12 12 12 10 11 10 10 10 11 11 12 12 12 12 12 13 13 12 12 11 11 11 11 11 12 12 12 12 12 11 11 10 10 10 11 11 11 11 11 11 13 13 12 10 10 11 13 14 14 14 14 13 14 12 13 20 19 16 16 14 13 14 15 15 15 14 13 13 13 12 12 17 18 18 18 18 19 19 16 12 11 12 11 10 9
8 10 11 10 10 10 11 13 13 13 12 11 10 9 10 10 12 13 14 13 11 12 12 11 13 13 13 13 13 12 11 11 11 10 9 9 11 10 10 11 11 10 11 11 11 13 15 14 14 14 14 13 13 11 16 23 24 24 17 15 14 14 13 14 14 15 15 14 12 11 10 15 16 17 16 21 20 20 20 19 18 17 14 13 12
8 8 9 11 11 11 12 13 13 13 13 12 12 11 10 12 11 12 12 11 12 12 11 10 10 11 12 13 13 13 13 12 10 11 10 10 9 8 10 10 10 10 10 9 12 15 13 12 12 13 14 14 13 12 20 23 25 25 20 15 13 13 13 14 14 15 14 14 14 12 12 11 12 14 13 15 18 21 21 20 20 19 19 18 15
9 9 9 10 10 11 12 12 12 12 12 12 11 11 11 11 12 10 10 10 10 10 10 10 9 10 11 11 12 13 12 12 11 10 9 8 8 8 9 9 11 11 8 11 12 11 13 13 13 15 15 14 13 15 22 24 25 25 25 19 12 13 14 14 15 15 15 15 13 13 12 11 10 20 15 12 12 14 18 21 19 20 20 21 20
7 8 9 9 9 9 10 10 11 11 9 9 9 9 10 9 9 9 9 9 10 12 11 11 10 10 11 11 11 11 11 12 11 11 9 8 8 10 10 9 8 6 9 11 11 13 12 12 14 15 14 13 14 15 24 25 26 27 26 21 13 14 13 14 15 15 13 14 15 14 14 11 10 13 12 13 12 12 12 12 12 12 11 17 19
8 8 8 8 9 10 10 10 10 10 10 10 10 9 10 10 10 11 10 9 9 9 8 8 9 10 10 11 12 12 12 12 11 9 9 9 9 9 9 8 8 10 11 12 12 13 13 12 12 12 12 12 12 17 23 25 25 26 26 22 12 12 11 11 11 12 13 13 14 13 11 10 12 13 12 16 13 13 12 12 12 12 12 11 11
7 8 9 10 9 10 9 9 8 9 9 9 10 10 10 11 10 10 12 11 11 11 11 11 11 11 11 11 11 12 12 12 12 11 10 10 9 9 9 8 7 8 8 7 8 8 11 12 12 12 13 13 10 18 22 24 26 25 26 15 12 12 12 11 11 12 11 10 11 12 10 10 11 11 17 24 18 13 11 13 12 10 8 7 6
7 7 8 9 9 8 8 7 8 8 8 9 9 9 10 11 10 10 10 11 11 12 13 14 13 13 12 11 11 11 12 11 11 11 12 11 11 10 9 6 7 8 8 9 10 10 10 11 12 12 13 12 9 16 23 24 26 27 20 12 12 11 11 12 12 11 12 12 12 11 10 9 11 11 19 24 23 19 11 13 11 10 7 6 6
8 6 7 8 8 7 7 7 9 8 8 8 8 9 10 10 10 10 10 11 11 12 12 12 13 13 13 12 11 11 11 11 10 11 11 11 9 8 8 6 8 9 9 10 9 9 8 9 11 12 13 12 10 14 24 24 26 28 19 14 12 13 12 11 10 11 10 10 12 19 15 10 11 11 21 24 24 19 12 13 11 11 10 9 8
7 7 9 8 8 7 8 7 8 9 9 7 8 9 9 9 9 10 9 10 10 11 11 12 13 13 12 11 11 11 11 11 11 11 10 10 10 9 8 5 7 7 9 7 6 7 7 7 8 10 9 12 9 12 22 24 26 27 19 12 12 11 12 12 11 10 9 9 11 15 20 14 11 15 24 25 26 20 12 13 13 11 11 11 9
7 7 8 9 8 6 7 8 9 10 8 7 6 8 9 10 10 9 9 10 10 10 10 11 12 12 12 12 11 11 11 11 12 12 10 9 8 8 7 7 7 7 8 7 6 7 8 8 7 8 9 10 10 9 15 24 25 28 24 13 12 13 13 13 12 12 12 10 11 10 15 20 20 21 23 25 25 24 13 11 10 10 11 11 8
7 8 8 7 7 7 8 9 8 7 7 6 6 7 9 9 9 10 11 10 10 10 11 12 12 12 12 12 11 10 12 12 10 11 10 9 7 7 7 6 8 7 6 6 7 7 7 6 6 6 7 8 8 10 13 23 26 28 28 20 13 14 12 12 12 12 12 12 12 12 10 19 22 22 22 25 25 25 18 12 12 10 9 8 9
6 8 7 7 6 8 9 9 7 7 6 6 6 8 10 10 9 11 12 10 10 10 11 12 13 13 13 13 12 12 11 10 10 9 11 11 8 6 6 6 6 6 7 8 6 6 6 6 5 6 7 8 8 13 10 18 25 27 28 24 14 12 12 12 12 12 11 11 7 9 9 18 24 23 22 24 26 24 24 11 12 14 15 17 11
8 9 7 6 7 9 10 10 9 7 6 7 7 10 11 11 12 13 11 9 9 11 12 14 14 14 14 14 13 14 13 10 10 10 10 12 9 7 7 5 6 6 8 8 8 7 6 7 6 6 6 7 8 9 17 14 21 26 30 25 23 14 20 13 13 13 14 8 7 7 9 21 24 25 24 24 24 25 21 12 19 20 18 19 11
8 8 9 5 6 8 10 9 9 8 8 8 7 10 12 13 15 12 9 9 10 12 13 15 15 14 14 15 15 14 13 11 11 11 10 11 10 8 7 6 7 7 7 8 7 6 6 7 8 7 7 7 7 7 13 20 17 26 27 28 27 22 22 13 11 10 8 6 7 9 13 22 24 24 24 24 22 22 14 19 21 20 21 15 8
11 12 10 6 7 10 10 11 11 10 9 8 6 9 13 17 14 8 9 10 12 14 14 15 16 16 16 15 15 14 14 13 12 10 11 11 11 8 8 7 7 8 8 9 8 7 8 9 8 9 8 8 8 8 8 15 22 20 27 28 28 26 24 21 13 8 7 7 10 20 19 22 23 23 23 23 20 22 24 20 20 21 14 7 7
10 10 10 7 7 8 11 14 15 13 10 7 7 7 13 16 12 9 9 11 13 14 14 15 16 16 17 16 17 17 16 15 14 11 11 11 11 9 9 8 7 9 9 9 9 8 9 9 9 9 9 9 9 8 9 9 13 16 18 27 28 28 28 25 18 12 16 19 20 22 22 24 23 20 16 12 9 10 19 21 17 14 7 6 6
13 13 9 8 8 11 13 15 16 15 10 7 8 9 11 12 12 9 10 12 13 15 16 17 17 16 16 16 17 15 14 14 14 12 10 10 10 9 9 9 9 9 9 9 10 9 9 10 11 10 8 8 11 10 9 9 9 10 11 13 16 18 25 24 16 12 15 14 17 18 14 18 12 21 14 11 11 9 9 8 7 6 5 5 5
12 12 9 8 10 12 14 15 16 16 12 10 10 11 12 11 10 10 10 11 14 15 16 17 19 16 15 15 15 18 18 14 13 11 11 11 10 10 11 11 11 11 11 11 10 11 12 11 11 9 8 9 11 10 10 11 10 10 11 12 11 12 14 12 12 11 11 11 13 16 18 12 10 8 8 7 6 6 6 6 6 6 5 5 6
15 14 10 12 11 13 14 14 16 15 12 12 12 12 13 13 11 9 9 12 14 16 17 19 18 16 15 15 14 13 13 13 13 13 12 12 12 11 12 12 13 11 12 12 11 12 12 11 10 10 10 10 10 12 14 12 14 17 15 13 13 12 12 11 15 20 13 11 10 10 9 10 10 10 9 9 8 7 6 6 8 8 6 6 6
15 13 13 14 14 13 14 15 16 13 14 12 14 12 12 9 9 9 11 13 16 17 17 18 16 14 14 13 12 12 12 13 12 13 13 13 14 19 16 13 13 15 21 21 16 12 11 9 10 11 11 14 15 14 15 23 23 23 25 24 16 16 17 15 22 31 19 14 13 12 11 12 12 11 12 11 11 9 9 8 7 8 6 5 6
16 15 15 15 14 14 13 15 15 13 13 15 14 15 13 11 8 9 10 14 15 15 15 16 15 14 14 14 12 12 13 12 13 13 14 15 14 13 21 27 26 19 17 21 25 26 21 16 13 10 11 20 13 11 21 24 26 25 25 27 23 20 22 25 29 21 15 14 13 14 13 12 13 12 13 12 10 10 9 10 6 6 6 7 6
Wind_Direction
257 265 270 264 241 227 223 209 214 212 209 200 200 201 198 198 188 200 192 184 180 178 181 178 180 179 183 195 202 192 190 189 192 196 195 199 191 189 185 184 179 175 173 167 172 167 167 162 162 171 170 173 180 190 177 170 166 157 146 131 133 111 78 13 94 123 119 75 36 60 44 30 44 69 70 47 35 24 24 69 74 66 47 47 32
278 282 273 255 239 225 214 208 197 202 217 201 204 204 203 197 197 199 180 186 189 188 185 187 190 188 186 194 194 187 185 188 199 197 199 194 190 189 185 181 177 176 172 174 171 169 167 170 174 177 174 182 183 165 166 166 154 154 156 107 41 131 165 204 216 123 40 148 147 77 13 356 40 17 10 8 7 360 22 46 69 69 50 36 31
281 266 272 253 239 234 212 213 212 212 208 202 209 200 199 199 203 188 187 187 193 189 184 195 193 195 194 193 190 191 203 206 204 194 183 184 184 183 181 180 176 177 176 176 173 177 175 171 181 173 178 171 167 175 174 177 176 173 179 159 136 59 137 198 179 202 143 131 109 93 24 63 359 347 20 17 347 338 5 44 53 73 50 55 45
279 277 280 274 236 241 228 232 225 220 221 217 210 205 202 205 199 191 192 192 190 193 194 191 184 177 170 115 161 148 174 160 156 152 174 164 180 182 189 183 180 182 175 177 179 178 177 180 171 174 180 180 178 175 181 185 179 183 185 184 151 137 178 194 124 174 152 140 96 122 178 124 339 250 303 285 323 21 43 31 24 70 45 50 41
280 288 283 281 274 266 235 240 226 224 223 217 207 205 204 205 198 194 192 192 193 190 187 171 154 143 129 85 101 90 79 145 153 190 186 185 185 194 194 181 183 180 178 182 180 182 181 178 175 179 178 181 179 182 187 191 187 186 180 174 190 160 176 182 164 84 96 293 146 110 66 38 218 207 46 284 10 108 349 335 345 38 63 76 53
262 271 277 291 325 321 306 275 239 235 233 227 211 211 204 203 195 193 190 190 190 186 178 169 175 170 162 163 170 181 186 179 196 198 181 191 202 189 184 188 181 182 180 182 185 179 182 181 179 175 180 180 186 190 185 170 187 188 193 187 192 216 152 156 127 91 70 49 21 129 159 171 178 225 121 232 336 248 291 303 294 359 320 76 50
259 267 295 340 330 321 285 246 236 238 240 225 216 211 205 198 191 191 191 188 184 180 175 174 178 184 187 190 188 188 194 207 202 186 190 198 185 185 190 183 187 183 184 184 185 183 180 181 181 182 181 183 183 176 184 194 193 194 177 189 199 170 147 151 164 169 106 32 48 59 81 74 130 132 199 82 308 305 308 295 281 338 353 42 18
285 287 1 328 290 265 277 267 246 242 246 222 226 215 203 197 186 188 187 187 184 177 180 183 184 187 190 196 196 200 206 203 187 193 185 174 178 181 176 188 189 190 184 187 186 184 181 182 182 181 183 185 180 189 193 191 180 187 188 197 179 194 184 164 167 170 162 182 101 85 75 75 60 71 107 160 162 179 276 321 295 335 8 326 296
316 328 334 320 296 298 279 285 270 269 254 219 221 221 213 198 188 184 189 184 184 181 183 189 190 188 191 193 200 211 206 195 171 168 174 171 177 173 177 182 187 194 190 187 188 185 185 185 183 184 185 185 187 189 190 181 187 183 184 187 195 201 203 173 152 184 172 161 138 74 80 56 48 48 68 78 130 150 261 250 269 330 356 309 324
48 10 321 293 292 295 298 294 303 285 279 243 237 200 199 198 197 189 195 188 184 185 187 190 192 187 193 200 204 203 191 165 155 169 175 174 184 182 181 179 187 188 192 190 187 191 190 186 186 189 190 186 187 189 184 184 188 192 192 192 188 191 197 181 183 176 182 162 167 149 134 98 53 17 14 101 55 117 179 207 224 221 296 283 290
7 339 256 272 300 300 323 313 299 315 322 290 223 188 178 180 197 207 205 191 188 189 188 192 193 193 200 201 202 198 187 168 166 176 167 172 188 188 187 191 183 192 187 192 195 192 193 190 190 192 189 187 187 186 191 189 190 189 187 185 191 190 189 188 186 177 165 167 167 170 168 171 172 173 186 184 159 152 120 233 253 242 199 312 288
19 7 333 339 339 349 6 341 325 309 324 291 214 179 174 182 179 200 210 203 194 195 195 197 196 203 207 204 203 200 185 184 188 184 182 184 186 186 185 178 191 190 190 196 199 194 192 192 192 190 191 189 195 193 190 189 183 179 177 187 193 196 185 183 183 172 179 179 186 189 187 178 156 159 173 169 175 189 163 156 172 227 300 228 280
63 353 316 334 337 327 340 322 309 303 285 257 218 185 181 185 187 192 209 202 200 197 201 200 200 205 204 203 205 197 194 194 196 192 187 187 186 182 179 190 182 186 198 198 200 190 187 189 192 194 197 200 196 189 191 183 178 182 185 189 190 190 191 188 183 189 181 181 191 190 167 177 188 162 150 165 161 130 144 123 181 157 198 296 278
337 356 312 319 325 321 314 297 272 264 258 254 234 188 186 192 197 204 208 196 212 211 209 207 212 211 205 204 202 196 201 198 199 197 191 193 187 189 188 188 187 197 193 200 192 185 190 197 191 196 198 195 195 194 188 186 182 185 186 189 195 197 187 191 195 185 187 191 151 169 186 185 177 167 156 153 159 144 151 167 143 191 198 236 260
353 352 325 320 318 309 304 314 320 299 274 258 245 216 188 204 200 207 209 201 194 208 214 218 217 214 212 210 206 204 205 201 204 200 190 190 192 191 194 193 197 199 198 196 178 188 194 190 193 193 191 191 190 192 193 188 187 185 189 195 193 189 192 187 192 180 182 182 178 184 173 171 175 167 160 173 166 176 163 165 154 149 202 198 212
323 326 324 300 277 290 304 307 304 305 262 236 236 224 209 218 212 212 211 203 203 201 212 220 224 219 216 213 215 212 211 207 207 203 202 194 193 194 195 196 200 192 192 182 190 185 190 192 190 195 190 188 189 189 188 189 187 187 189 189 194 183 188 192 194 181 188 182 177 166 161 181 168 168 169 161 170 157 154 155 159 150 170 260 354
319 342 315 288 259 272 266 295 318 299 277 255 248 231 224 223 223 224 219 211 208 209 210 214 234 231 226 223 221 220 219 216 212 206 201 195 194 198 196 199 190 189 190 187 183 190 190 190 191 192 192 190 187 188 187 187 186 191 192 191 195 185 186 194 183 186 188 173 174 178 178 166 170 161 158 159 157 152 161 166 179 171 162 146 161
290 281 279 302 299 343 22 258 291 326 326 316 296 267 262 259 248 241 238 226 221 205 206 203 214 230 233 229 225 224 224 229 231 225 212 199 198 196 196 190 198 190 180 182 182 184 188 190 193 193 193 189 191 187 186 186 184 193 194 195 193 174 185 187 189 183 177 172 171 171 169 169 165 166 170 165 164 165 163 173 184 188 172 164 167
324 336 341 342 359 8 20 14 358 341 321 309 308 316 310 282 274 270 265 271 262 233 206 210 207 213 219 228 227 227 225 225 224 217 206 214 211 207 203 203 181 183 184 181 182 185 187 191 191 193 188 191 189 190 186 186 186 191 191 193 183 177 186 189 187 178 177 169 175 177 173 170 166 168 162 166 167 164 171 168 174 170 196 161 151
331 353 355 3 8 16 16 6 358 349 342 330 285 226 241 258 291 293 296 301 289 271 256 228 216 212 218 218 228 229 233 233 230 222 217 213 213 213 214 202 203 188 192 181 186 188 188 189 192 190 189 187 189 189 186 187 185 193 189 189 185 179 187 191 184 180 171 178 176 181 181 173 168 161 166 171 172 172 166 170 172 173 180 163 145
7 7 10 12 14 12 10 6 360 358 359 360 1 355 344 349 344 332 318 312 306 302 301 298 308 267 243 233 229 222 231 226 231 226 230 229 224 216 213 215 194 205 189 190 193 191 189 190 189 191 190 188 187 187 187 186 188 192 191 189 180 184 188 190 175 181 180 179 184 183 180 177 165 169 172 167 173 172 169 173 170 172 176 177 167
17 17 18 15 12 8 6 6 6 8 9 8 3 2 360 352 344 335 332 300 283 271 251 261 264 261 256 250 245 238 229 219 226 224 226 224 218 217 214 199 210 213 199 205 196 192 191 189 189 192 191 189 189 190 186 186 189 190 191 186 185 184 189 186 178 186 185 183 180 180 182 175 176 174 170 177 175 173 177 172 184 180 183 184 183
16 18 17 15 11 10 8 11 10 7 3 5 8 13 5 351 339 330 316 293 275 274 270 263 255 249 247 247 248 243 234 227 227 227 229 226 222 220 207 212 217 206 202 208 206 198 193 191 192 190 190 191 191 191 189 188 192 191 190 190 187 186 188 186 187 191 184 177 179 187 184 172 171 175 180 182 175 181 179 183 185 185 185 184 183
15 17 19 14 9 9 15 12 8 6 3 2 2 5 8 8 1 347 335 313 302 286 276 263 254 251 250 249 243 239 232 231 229 228 228 224 220 219 210 216 215 201 205 205 202 207 202 195 194 191 191 193 193 192 190 193 192 190 191 191 186 188 190 191 190 187 183 183 187 182 185 177 176 180 182 180 185 180 183 186 184 189 183 179 180
14 14 11 12 17 15 9 6 6 4 4 3 3 3 5 2 0 0 354 342 322 302 294 278 264 263 259 252 252 243 239 235 234 233 231 228 222 222 214 216 208 209 206 196 202 198 203 205 200 196 194 194 195 191 191 192 194 193 193 189 188 188 190 191 190 188 185 185 187 191 180 174 177 180 182 187 184 186 187 182 186 183 180 174 165
7 8 10 12 7 8 10 6 4 5 5 2 1 0 0 0 359 357 355 351 349 345 325 294 278 270 265 256 256 250 245 242 239 238 235 232 229 226 222 218 209 212 203 202 201 198 199 203 209 205 199 196 191 191 194 194 191 189 190 190 188 189 191 190 188 187 186 187 189 187 180 177 180 185 188 186 184 186 180 185 183 181 173 170 166
10 7 2 3 12 9 5 4 1 360 3 2 0 359 358 356 355 357 355 352 348 347 344 340 328 293 278 272 262 254 247 245 242 240 239 237 234 230 223 222 210 212 208 206 203 202 202 202 204 205 206 197 193 194 194 193 191 190 188 187 187 190 191 190 191 187 185 187 187 186 182 183 187 190 185 184 182 181 184 186 183 176 174 170 169
8 13 12 11 1 0 1 0 358 358 355 359 2 2 358 354 352 350 349 351 351 348 346 341 336 332 324 305 281 266 260 255 253 249 244 240 236 232 227 224 212 215 214 210 206 204 205 202 205 203 206 200 197 196 194 192 191 190 188 190 189 190 190 191 190 189 186 187 188 187 186 188 190 190 186 182 178 181 175 181 179 175 175 171 172
5 2 1 4 2 357 355 354 353 354 358 357 356 355 355 354 354 349 349 349 347 346 347 345 341 339 331 321 312 298 280 268 259 257 252 244 237 233 230 223 216 218 215 215 210 207 206 208 208 205 202 199 200 200 196 191 189 190 192 192 190 190 188 187 186 188 189 188 188 188 187 187 188 187 186 181 183 177 171 175 180 176 175 172 172
359 353 353 352 351 351 353 351 351 355 353 354 355 353 352 350 349 348 345 344 346 347 346 346 350 348 342 334 322 311 298 285 277 263 254 247 241 235 229 225 222 218 217 212 206 206 208 209 207 208 205 203 207 206 196 189 186 187 189 192 191 190 187 186 184 184 188 191 192 187 186 182 184 185 185 185 185 186 187 182 173 175 175 172 176
350 350 343 345 344 345 347 350 350 350 349 349 349 346 346 349 348 345 344 341 346 344 347 348 347 346 341 340 337 328 318 303 286 275 268 257 246 239 233 231 229 220 215 210 203 207 209 208 208 207 207 209 209 207 195 194 192 187 183 186 187 188 189 189 189 185 186 185 188 179 181 183 181 183 186 187 187 188 188 189 185 182 180 173 170
341 339 339 341 342 342 346 345 344 343 344 345 345 344 346 348 346 343 339 336 340 341 339 340 339 339 342 341 340 334 327 315 303 287 275 264 257 247 239 234 229 224 219 209 212 213 209 206 206 208 211 212 211 200 196 197 196 192 186 185 186 186 186 191 191 191 188 182 182 178 184 182 182 182 180 186 188 190 189 189 188 187 189 191 191
333 334 339 336 335 336 335 336 337 338 338 337 338 339 343 341 339 335 334 335 334 330 328 330 335 338 340 341 339 338 330 322 312 299 288 279 264 251 244 237 229 224 214 215 220 212 213 209 204 208 213 212 213 199 198 196 195 194 189 182 190 188 187 193 191 192 189 184 179 178 179 186 183 182 179 182 180 188 191 189 190 192 196 200 202
322 324 327 325 322 324 325 326 326 325 324 323 332 331 331 334 328 328 331 330 331 329 330 329 335 339 340 340 340 337 331 323 315 306 294 279 265 254 245 237 236 223 218 222 219 216 215 210 210 210 212 212 211 199 197 196 195 194 189 184 190 187 192 194 194 192 189 186 182 178 177 177 178 180 179 179 180 183 183 185 188 192 199 208 209
311 313 312 310 310 311 315 321 324 323 323 327 329 334 333 332 334 331 329 329 326 322 320 321 329 331 337 340 339 336 331 326 320 309 295 281 266 264 258 244 229 222 220 219 216 217 216 213 212 210 213 213 212 198 198 196 194 193 191 184 186 186 189 194 194 193 193 189 185 182 178 165 169 177 181 179 177 180 181 184 189 195 202 204 208
279 289 297 301 303 305 306 308 309 311 313 321 321 328 334 328 330 330 328 330 329 328 327 330 334 337 339 338 335 330 327 324 322 317 306 290 278 264 260 251 240 238 234 232 232 224 220 216 213 209 212 215 207 197 198 197 195 194 189 183 184 184 186 187 189 190 190 190 188 185 176 171 169 173 181 183 182 176 177 182 189 194 193 196 207
257 262 277 284 288 290 291 294 300 302 312 315 319 327 328 326 327 326 328 327 330 330 331 334 334 334 333 331 330 325 322 320 319 317 309 300 291 278 265 254 245 240 232 226 226 218 217 215 211 210 211 213 204 197 197 196 195 192 186 182 179 181 186 187 189 186 187 187 186 183 178 166 174 176 182 183 182 177 176 181 185 188 186 189 207
249 257 265 277 285 285 286 295 300 301 303 310 316 325 322 319 319 321 324 323 325 324 326 329 327 327 326 325 324 324 319 317 315 311 303 298 290 282 273 252 239 239 234 232 224 225 222 217 214 212 209 208 204 198 198 196 194 193 183 177 178 183 187 188 187 184 183 186 188 187 184 172 172 171 181 184 184 181 178 182 181 182 186 199 207
247 262 278 280 277 278 287 294 293 296 302 310 314 318 317 310 312 315 315 314 313 317 324 326 323 320 319 318 318 318 317 313 309 302 296 291 285 274 267 246 242 242 241 234 222 225 223 218 220 215 207 207 202 200 200 199 196 194 186 172 175 183 183 189 183 182 183 181 186 190 187 179 169 173 182 185 186 181 174 180 181 178 192 203 199
265 268 267 274 279 286 289 287 287 286 294 302 308 310 304 303 305 309 307 304 306 312 318 317 314 314 313 313 314 314 312 311 306 299 292 280 275 276 261 243 242 233 238 223 217 219 218 219 210 210 211 207 199 199 205 202 200 200 191 170 179 182 190 186 183 182 177 182 184 185 188 186 179 182 187 188 187 181 170 176 177 186 192 200 176
270 276 279 277 272 272 279 281 277 280 289 294 303 303 297 296 302 302 295 296 303 313 316 313 311 308 308 307 307 307 305 304 297 292 288 283 270 260 258 246 246 244 237 230 220 219 216 219 205 211 209 211 200 195 207 205 204 203 196 173 186 190 186 181 182 178 185 183 185 186 179 184 183 185 189 191 190 186 174 177 185 191 195 178 174
265 273 278 276 281 284 284 282 277 282 288 296 299 294 291 294 295 288 288 300 309 315 316 313 308 306 303 301 304 305 303 297 295 291 290 283 275 258 249 244 241 237 236 236 228 219 216 215 210 207 209 212 200 199 202 211 210 208 205 180 182 192 182 178 181 188 187 189 178 164 146 182 184 186 189 192 193 189 181 173 189 192 193 194 193
287 287 276 277 289 289 284 281 286 288 293 296 299 293 291 293 286 283 297 305 315 317 314 308 304 302 303 304 305 305 303 301 292 284 277 279 277 265 252 234 235 235 237 240 228 221 213 217 212 210 210 210 204 204 202 207 214 211 211 190 183 183 188 184 186 188 189 175 126 149 164 181 187 189 190 193 194 194 191 176 188 199 198 203 179
280 273 279 289 283 279 282 283 284 287 289 287 289 288 288 288 284 295 309 316 319 313 309 304 301 301 304 304 303 300 298 294 290 285 270 267 266 252 248 232 223 224 230 233 234 222 219 218 216 215 210 209 206 202 209 209 214 214 213 203 193 183 186 184 189 191 179 150 156 165 178 185 191 192 191 192 192 193 189 176 187 196 202 186 125
287 287 288 295 285 286 287 285 282 281 280 282 281 283 285 282 285 310 316 318 314 310 305 300 301 303 301 300 299 296 295 293 285 275 272 267 257 241 241 233 220 225 222 228 231 215 220 223 221 221 211 205 203 204 204 213 214 220 217 205 196 187 186 183 184 185 170 166 166 175 178 186 190 188 188 189 191 191 193 188 187 197 172 110 139
283 285 288 288 288 282 282 281 283 278 278 281 278 272 277 280 297 313 316 313 306 303 300 298 297 295 295 297 296 294 289 285 283 271 260 258 259 247 233 233 217 224 220 222 227 218 222 223 227 224 218 195 190 196 208 209 214 219 222 215 200 194 191 188 176 174 174 171 175 179 181 187 190 186 183 185 174 179 188 193 181 136 117 140 122
286 284 292 294 288 284 281 281 282 283 281 278 278 276 274 285 295 311 314 308 304 303 298 295 290 290 290 291 289 289 290 289 284 278 262 257 251 245 237 233 221 221 222 222 223 220 222 223 227 226 219 193 167 190 201 202 206 212 216 224 211 196 191 184 174 171 170 173 176 180 181 184 183 189 171 131 134 156 163 124 92 115 114 118 137
284 286 291 287 278 276 279 282 282 284 291 289 281 279 282 288 297 307 308 307 300 296 294 291 289 288 286 285 284 284 286 284 281 275 271 263 249 238 239 232 222 217 219 224 219 219 221 218 224 221 208 197 201 204 202 196 199 201 210 211 206 185 187 179 167 164 162 164 164 171 174 175 164 145 118 108 101 110 120 126 113 109 118 117 153
294 295 296 285 286 282 278 281 281 286 289 288 282 283 286 294 301 308 308 303 295 292 290 286 284 283 279 278 277 278 278 281 281 276 264 258 258 251 240 244 234 224 219 221 218 223 222 220 217 213 200 206 207 209 209 191 196 198 199 203 202 188 180 168 165 158 149 155 158 164 154 146 141 142 144 148 155 140 136 140 137 126 132 152 151
290 294 291 289 285 282 284 284 283 288 291 287 288 285 286 293 305 306 305 298 296 292 287 282 281 279 277 277 277 276 274 276 277 278 279 272 252 245 244 241 251 226 227 228 223 226 221 210 218 219 200 204 208 210 191 195 201 202 208 210 210 188 178 160 165 165 155 157 166 162 164 163 159 158 166 168 170 170 156 156 159 156 144 147 164
294 295 292 290 289 289 288 283 285 293 291 292 291 290 291 295 298 293 292 288 285 284 282 280 281 279 280 284 284 283 282 279 278 278 279 279 281 264 249 249 248 244 229 231 235 237 235 218 210 223 215 218 217 187 193 199 199 202 206 210 208 188 176 166 167 159 157 163 165 171 174 174 174 168 173 175 169 168 167 148 153 160 148 167 172